093  
ASUS42 KRAH 252010  
RWRRAH  
NORTH CAROLINA WEATHER ROUNDUP  
NATIONAL WEATHER SERVICE RALEIGH NC  
400 PM EDT WED MAY 25 2016  
 
NOTE: "FAIR" INDICATES FEW OR NO CLOUDS BELOW 12,000 FEET WITH NO  
SIGNIFICANT WEATHER AND/OR S TO VISIBILITY
.  
 
NCZ001-053-055-056-065-067-252100-  
WESTERN NORTH CAROLINA  
 
CITY SKY/WX TMP DP RH WIND PRES REMARKS
 
ASHEVILLE PTSUNNY 79 55 43 S12 30.24F  
JEFFERSON CLOUDY 73 53 50 SE3 30.27F  
MORGANTON SUNNY 85 50 29 SE3 30.23F  
HICKORY SUNNY 83 54 36 SW9 30.19F  
RUTHERFORDTON MOSUNNY 84 54 36 CALM 30.20F  
MOUNT AIRY SUNNY 83 59 43 SW6 30.21F  
BOONE CLOUDY 73 51 44 W8 30.29S  

 
 
NCZ021-022-025-041-071-084-088-252100-  
CENTRAL NORTH CAROLINA  
 
CITY SKY/WX TMP DP RH WIND PRES REMARKS
 
CHARLOTTE MOSUNNY 85 56 37 SW6 30.19F  
GREENSBORO PTSUNNY 84 48 28 VRB5 30.18F  
WINSTON-SALEM SUNNY 84 50 30 VRB6 30.19F  
RALEIGH-DURHAM MOSUNNY 86 58 38 W9 30.17F  
FORT BRAGG MOSUNNY 88 54 31 VRB3 30.16F  
FAYETTEVILLE MOSUNNY 88 55 32 SW12 30.17F  
BURLINGTON SUNNY 86 52 30 SW9 30.17F  
LAURINBURG MOSUNNY 88 56 33 SW10 30.18F  

 
 
NCZ011-015-027-028-043-044-047-080-103-252100-  
NORTHEASTERN NORTH CAROLINA  
 
CITY SKY/WX TMP DP RH WIND PRES REMARKS
 
ROCKY MT-WILSO MOSUNNY 87 56 34 SW8 30.16F  
GREENVILLE MOSUNNY 88 55 33 SW5 30.18F  
WASHINGTON SUNNY 86 57 36 NW5 30.16F  
ELIZABETH CITY MOSUNNY 86 58 38 SW14 30.15F  
MANTEO SUNNY 81 65 57 S13 30.17F  
CAPE HATTERAS SUNNY 77 67 71 SW8 30.20F  

 
 
NCZ078-087-090-091-093-098-101-252100-  
SOUTHEASTERN NORTH CAROLINA  
 
CITY SKY/WX TMP DP RH WIND PRES REMARKS
 
LUMBERTON MOSUNNY 88 55 32 CALM 30.17F  
GOLDSBORO PTSUNNY 87 54 31 SW12 30.16F  
KINSTON MOSUNNY 88 54 31 S6 30.18F  
KENANSVILLE PTSUNNY 87 53 30 W6 30.19S  
NEW BERN MOSUNNY 87 58 37 S10 30.18F  
CHERRY POINT MOSUNNY 83 57 41 S12 30.19F  
BEAUFORT SUNNY 77 68 73 S13 30.21S  
JACKSONVILLE SUNNY 83 58 42 S14 30.18F  
WILMINGTON SUNNY 85 58 39 S10 30.19S  

 
 
 
 
CLICK HERE TO GO TO PREVIOUS BULLETINS.

The Nexlab NC Page Main Text Page